UAL148 SBGR-KEWR

Flight info

Callsign UAL148
Flight time N/A
Altitude 32000
Route ISMOB UZ26 BIXAN/N0489F340 UZ26 ILKUS/N0497F330 DCT MUGVI/N0495F340 DCT PUDVO DCT GENAT/N0487F360 UL462 NORWI DCT BNE DCT ZPATA DCT PJM DCT SAULT DCT KEEKA/M083F380 L459 NUBUS DCT MEGGG L456 DARUX L459 SAVIK/N0472F380 DCT YAALE/N0471F390 Y497 MOUGH/N0469F380 Y497 SUBBS DCT CYN DCT GXU DCT RBV V249 METRO
Aircraft B772/H-SDE2E3FGHIJ5LORVWXY/LB1D1

Departure

Time 2026-05-05 08:05
Airport São Paulo/Guarulhos–Governor André Franco Montoro International Airport (SBGR)

Arrival

Time N/A
Airport Newark Liberty International Airport (KEWR)
Time Latitude Longitude Altitude Speed Heading
2026-05-05 07:56 -23.42738 -46.47230 2472 ft 3 kts 253°
2026-05-05 07:56 -23.42731 -46.47206 2472 ft 3 kts 253°
2026-05-05 07:57 -23.42725 -46.47183 2472 ft 3 kts 249°
2026-05-05 07:57 -23.42714 -46.47165 2472 ft 3 kts 200°
2026-05-05 07:57 -23.42693 -46.47164 2472 ft 3 kts 162°
2026-05-05 07:57 -23.42677 -46.47170 2472 ft 1 kts 163°
2026-05-05 07:58 -23.42675 -46.47171 2472 ft 0 kts 163°
2026-05-05 08:00 -23.42694 -46.47164 2476 ft 5 kts 163°
2026-05-05 08:00 -23.42731 -46.47153 2476 ft 8 kts 163°
2026-05-05 08:00 -23.42790 -46.47134 2477 ft 9 kts 163°
2026-05-05 08:01 -23.42852 -46.47114 2476 ft 13 kts 163°
2026-05-05 08:01 -23.42932 -46.47143 2476 ft 13 kts 246°
2026-05-05 08:01 -23.42958 -46.47241 2472 ft 13 kts 255°
2026-05-05 08:01 -23.42982 -46.47340 2472 ft 13 kts 255°
2026-05-05 08:02 -23.43009 -46.47435 2474 ft 13 kts 251°
2026-05-05 08:02 -23.43039 -46.47532 2475 ft 13 kts 254°
2026-05-05 08:02 -23.43070 -46.47650 2477 ft 22 kts 254°
2026-05-05 08:02 -23.43112 -46.47803 2475 ft 21 kts 253°
2026-05-05 08:03 -23.43154 -46.47952 2474 ft 21 kts 253°
2026-05-05 08:03 -23.43196 -46.48105 2476 ft 21 kts 253°
2026-05-05 08:03 -23.43232 -46.48244 2474 ft 16 kts 254°
2026-05-05 08:03 -23.43273 -46.48350 2473 ft 16 kts 226°
2026-05-05 08:04 -23.43359 -46.48346 2478 ft 14 kts 161°
2026-05-05 08:04 -23.43404 -46.48238 2475 ft 28 kts 70°
2026-05-05 08:04 -23.43281 -46.47784 2478 ft 97 kts 74°
2026-05-05 08:04 -23.43026 -46.46859 2480 ft 156 kts 73°
2026-05-05 08:05 -23.42669 -46.45567 2633 ft 191 kts 73°
2026-05-05 08:05 -23.42270 -46.44122 3080 ft 209 kts 73°
2026-05-05 08:05 -23.41829 -46.42579 3692 ft 217 kts 72°
2026-05-05 08:05 -23.41367 -46.40989 4291 ft 226 kts 72°
2026-05-05 08:06 -23.40872 -46.39313 4573 ft 238 kts 72°
2026-05-05 08:06 -23.40358 -46.37594 4939 ft 246 kts 72°
2026-05-05 08:06 -23.39781 -46.35813 5275 ft 254 kts 63°
2026-05-05 08:06 -23.38865 -46.34106 5435 ft 267 kts 57°
2026-05-05 08:07 -23.37833 -46.32382 5899 ft 273 kts 57°
2026-05-05 08:07 -23.36898 -46.30836 6359 ft 278 kts 56°
2026-05-05 08:07 -23.35833 -46.29053 6779 ft 283 kts 57°
2026-05-05 08:07 -23.34783 -46.27267 7317 ft 285 kts 57°
2026-05-05 08:08 -23.33719 -46.25441 7757 ft 289 kts 57°
2026-05-05 08:08 -23.32633 -46.23578 8222 ft 292 kts 57°
2026-05-05 08:08 -23.31269 -46.21971 8556 ft 293 kts 29°
2026-05-05 08:08 -23.29331 -46.21350 8962 ft 294 kts 357°
2026-05-05 08:09 -23.27367 -46.21880 9401 ft 292 kts 332°
2026-05-05 08:09 -23.25596 -46.22969 9787 ft 295 kts 328°
2026-05-05 08:09 -23.23830 -46.24133 10245 ft 297 kts 327°
2026-05-05 08:09 -23.22063 -46.25316 10518 ft 308 kts 327°
2026-05-05 08:10 -23.20194 -46.26576 10638 ft 323 kts 327°
2026-05-05 08:10 -23.18239 -46.27896 10772 ft 339 kts 327°